Kaneohe MCBH, HI

4:54 AM HST on April 24, 2017 (GMT -1000)
Kaneohe Bay Marine Corps Air Facility

Weather History for PHNG - January, 2012

Change the Weather History Date:

Friday, January 6, 2012

  Actual Average Record
Temperature  
Mean Temperature 76 °F -  
Max Temperature 78 °F 76 °F 81 °F (1999)
Min Temperature 73 °F 66 °F 60 °F (1997)
Cooling Degree Days 10    
Growing Degree Days 26 (Base 50)    
Moisture  
Dew Point 64 °F    
Average Humidity 69    
Maximum Humidity 73    
Minimum Humidity 61    
Precipitation  
Precipitation 0.00 in - - ()
Sea Level Pressure  
Sea Level Pressure 30.12 in    
Wind  
Wind Speed 6 mph (East)    
Max Wind Speed 12 mph    
Max Gust Speed 18 mph    
Visibility 10 miles    
Events      
Averages and records for this station are not official NWS values.
T = Trace of Precipitation, MM = Missing Value Source: NWS Daily Summary

Daily Weather History Graph

Daily Weather History Graph

Search for Another Location

Airport or City:

Trip Planner

Search our weather history database for the weather conditions in past years. The results will help you decide how hot, cold, wet, or windy it might be!

Date:

Astronomy

Jan. 06, 2012 Rise Set
Actual Time 7:10 AM HST 6:03 PM HST
Civil Twilight 6:46 AM HST 6:27 PM HST
Nautical Twilight 6:18 AM HST 6:55 PM HST
Astronomical Twilight 5:51 AM HST 7:22 PM HST
Moon 4:06 PM HST (1/6) 4:57 AM HST (1/6)
Length of Visible Light 11h 41m
Length of Day
10h 53m
Waxing Gibbous, 94% of the Moon is Illuminated
Jan 6
Waxing Gibbous
Jan 8
Full
Jan 15
Last Quarter
Jan 22
New
Jan 30
First Quarter

Hourly Weather History & Observations

Time (HST) Temp. Dew Point Humidity Pressure Visibility Wind Dir Wind Speed Gust Speed Precip Events Conditions
12:57 AM 73.4 °F 62.6 °F 69% 30.16 in 10.0 mi Variable 4.6 mph - N/A   Mostly Cloudy
1:57 AM 73.9 °F 62.1 °F 66% 30.14 in 10.0 mi ENE 8.1 mph - N/A   Mostly Cloudy
2:57 AM 73.9 °F 64.9 °F 73% 30.12 in 10.0 mi ENE 8.1 mph - N/A   Mostly Cloudy
3:57 AM 73.0 °F 62.1 °F 68% 30.12 in 10.0 mi Calm Calm - N/A   Partly Cloudy
4:57 AM 73.0 °F 64.0 °F 73% 30.12 in 10.0 mi ENE 8.1 mph - N/A   Scattered Clouds
5:57 AM 73.0 °F 64.0 °F 73% 30.13 in 10.0 mi East 5.8 mph - 0.00 in   Scattered Clouds
6:57 AM 73.0 °F 64.0 °F 73% 30.14 in 10.0 mi East 3.5 mph - N/A   Partly Cloudy
7:57 AM 73.0 °F 64.0 °F 73% 30.15 in 10.0 mi East 4.6 mph - N/A   Partly Cloudy
8:57 AM 75.9 °F 64.0 °F 67% 30.16 in 10.0 mi ESE 6.9 mph - N/A   Partly Cloudy
9:57 AM 77.0 °F 64.9 °F 66% 30.17 in 10.0 mi ESE 8.1 mph - N/A   Scattered Clouds
10:57 AM 77.0 °F 64.0 °F 64% 30.16 in 10.0 mi East 11.5 mph 18.4 mph N/A   Overcast
11:57 AM 77.0 °F 63.0 °F 62% 30.14 in 10.0 mi East 8.1 mph 16.1 mph N/A   Overcast
12:57 PM 77.0 °F 66.9 °F 71% 30.11 in 10.0 mi NE 10.4 mph - N/A   Overcast
1:57 PM - - N/A% - 10.0 mi NE 8.1 mph - N/A   Mostly Cloudy
2:57 PM 78.1 °F 66.0 °F 66% 30.08 in 10.0 mi NE 6.9 mph - N/A   Scattered Clouds
3:20 PM 78.8 °F 64.4 °F 61% 30.09 in 10.0 mi ENE 8.1 mph - N/A   Mostly Cloudy
3:57 PM 77.0 °F 64.9 °F 66% 30.07 in 10.0 mi Variable 5.8 mph - N/A   Scattered Clouds
4:20 PM 77.0 °F 64.4 °F 65% 30.08 in 10.0 mi ENE 6.9 mph - N/A   Mostly Cloudy
4:44 PM 77.0 °F 64.4 °F 65% 30.08 in 10.0 mi ENE 8.1 mph - N/A   Scattered Clouds
4:57 PM 75.9 °F 64.9 °F 69% 30.07 in 10.0 mi ENE 6.9 mph - N/A   Partly Cloudy
5:57 PM 73.9 °F 64.9 °F 73% 30.08 in 10.0 mi Calm Calm - N/A   Clear
6:57 PM 73.9 °F 64.0 °F 71% 30.09 in 10.0 mi East 3.5 mph - N/A   Partly Cloudy
7:57 PM 73.9 °F 63.0 °F 68% 30.11 in 10.0 mi East 5.8 mph - N/A   Overcast
8:57 PM 73.0 °F 63.0 °F 71% 30.12 in 10.0 mi Variable 5.8 mph - N/A   Partly Cloudy
9:57 PM 73.0 °F 63.0 °F 71% 30.12 in 10.0 mi East 6.9 mph - N/A   Clear
10:57 PM 73.0 °F 62.1 °F 68% 30.12 in 10.0 mi East 8.1 mph - N/A   Partly Cloudy
11:57 PM 73.0 °F 63.0 °F 71% 30.11 in 10.0 mi Variable 4.6 mph - N/A   Clear